Location: Poughquag
(41.6090°N, 73.6820°W)
Time: 01:58:14
(UTC-05:00)

deb Explorer IX - Visible Passes

Search period start: 07 December 2023 00:00
Search period end: 17 December 2023 00:00
Orbit: 524 x 934 km, 38.7° (Epoch: 06 December)

Date Brightness Start Highest point End Pass type
(mag) Time Alt. Az. Time Alt. Az. Time Alt. Az.
09 Dec ? 18:47:11 10° SSW 18:48:56 20° SSW 18:48:56 20° SSW visible
10 Dec ? 17:55:48 10° SSW 17:58:41 19° SSE 17:59:41 17° SE visible
10 Dec ? 19:38:59 10° WSW 19:39:01 10° WSW 19:39:01 10° WSW visible
11 Dec ? 17:04:42 10° S 17:06:51 14° SSE 17:08:58 10° ESE visible
11 Dec ? 18:47:08 10° SW 18:49:41 31° SSW 18:49:41 31° SSW visible
12 Dec ? 17:55:17 10° SW 17:58:57 32° SSE 18:00:18 25° ESE visible
12 Dec ? 19:39:20 10° WSW 19:39:38 12° WSW 19:39:38 12° WSW visible
13 Dec ? 17:03:29 10° SSW 17:06:58 25° SSE 17:10:18 10° E visible
13 Dec ? 18:47:16 10° WSW 18:50:11 40° SW 18:50:11 40° SW visible
14 Dec ? 17:55:08 10° WSW 17:59:08 47° SSE 18:00:41 30° ESE visible
14 Dec ? 19:39:35 10° W 19:40:01 13° W 19:40:01 13° W visible
15 Dec ? 17:03:00 10° SW 17:07:01 40° SSE 17:10:48 10° E visible
15 Dec ? 18:47:22 10° W 18:50:29 45° SW 18:50:29 45° SW visible
16 Dec ? 17:55:04 10° WSW 17:59:12 57° S 18:00:55 30° ESE visible
16 Dec ? 19:39:44 10° W 19:40:15 13° W 19:40:15 13° W visible
